GW1109 Weather Reports


Display with metric or nautical units.
time (UTC)temp
F
wind
direction
speed
MPH
gust
MPH
rain 1hr
in
rain 24hr
in
rain mn
in
humidity
%
barometer
mb
20260504224546 67 246 5.0 9.0 0.00 0.00 0.00 30 1005.3
20260504223049 67 212 5.0 12.0 0.00 0.00 0.00 30 1005.2
20260504221547 67 269 8.0 17.0 0.00 0.00 0.00 28 1005.1
20260504220104 68 269 10.0 18.0 0.00 0.00 0.00 27 1005.1
20260504214547 69 282 8.0 16.0 0.00 0.00 0.00 27 1005.1
20260504213050 69 306 7.0 17.0 0.00 0.00 0.00 30 1005.0
20260504211541 69 271 10.0 19.0 0.00 0.00 0.00 27 1005.0
20260504210049 69 273 10.0 20.0 0.00 0.00 0.00 27 1004.9
20260504204557 69 281 6.0 16.0 0.00 0.00 0.00 31 1004.8
20260504203046 68 266 8.0 17.0 0.00 0.00 0.00 30 1004.7
20260504201551 67 256 9.0 21.0 0.00 0.00 0.00 29 1004.7
20260504200053 67 241 10.0 18.0 0.00 0.00 0.00 30 1004.7
20260504194549 68 306 8.0 18.0 0.00 0.00 0.00 31 1004.9
20260504193047 68 286 8.0 20.0 0.00 0.00 0.00 27 1004.9
20260504191545 68 268 5.0 19.0 0.00 0.00 0.00 36 1005.0
20260504190044 66 315 9.0 19.0 0.00 0.00 0.00 31 1005.1
20260504184540 65 281 11.0 21.0 0.00 0.00 0.00 30 1005.1
20260504183040 67 279 10.0 26.0 0.00 0.00 0.00 29 1005.1
20260504181552 67 252 13.0 26.0 0.00 0.00 0.00 27 1005.0
20260504180050 68 239 8.0 24.0 0.00 0.00 0.00 30 1004.9
20260504174546 65 263 12.0 25.0 0.00 0.00 0.00 30 1005.0
20260504173050 65 252 12.0 25.0 0.00 0.00 0.00 30 1005.2
20260504171548 66 309 15.0 23.0 0.00 0.00 0.00 28 1005.1
20260504081549 41 257 3.0 7.0 0.00 0.00 0.00 57 1008.5
20260504044545 38 250 2.0 9.0 0.00 0.00 0.00 62 1008.3
20260504043055 38 259 4.0 9.0 0.00 0.00 0.00 61 1008.2
20260504041544 39 201 5.0 8.0 0.00 0.00 0.00 61 1008.1
20260504040046 39 234 3.0 9.0 0.00 0.00 0.00 61 1008.1
20260504034549 39 257 3.0 8.0 0.00 0.00 0.00 60 1008.0
20260504033048 41 264 2.0 9.0 0.00 0.00 0.00 56 1007.9
20260504031546 43 242 4.0 10.0 0.00 0.00 0.00 51 1007.8
20260504030047 43 288 3.0 8.0 0.00 0.00 0.00 51 1007.7
20260504024548 43 273 3.0 10.0 0.00 0.00 0.00 51 1007.7
20260504023049 42 284 4.0 9.0 0.00 0.00 0.00 53 1007.7
20260504021547 41 293 2.0 5.0 0.00 0.00 0.00 56 1007.7
20260504020125 41 290 0.0 4.0 0.00 0.00 0.00 56 1007.7
20260504014559 41 242 1.0 3.0 0.00 0.02 0.00 57 1007.8
20260504013055 42 271 1.0 4.0 0.00 0.02 0.00 53 1007.8
20260504011546 42 317 2.0 7.0 0.00 0.02 0.00 54 1007.6
20260504010048 42 263 2.0 7.0 0.00 0.02 0.00 54 1007.4
20260504004618 43 270 4.0 9.0 0.00 0.06 0.00 50 1007.2
20260504003051 44 257 5.0 10.0 0.00 0.06 0.00 50 1007.0
20260504001617 44 273 4.0 8.0 0.00 0.06 0.00 50 1006.9
20260504000049 45 310 4.0 10.0 0.00 0.06 0.00 47 1006.6
20260503234547 46 319 9.0 16.0 0.00 0.09 0.00 45 1006.3
20260503233049 46 284 9.0 19.0 0.00 0.09 0.00 44 1006.2
20260503231541 47 315 12.0 21.0 0.00 0.09 0.00 41 1005.9
20260503230107 47 279 7.0 18.0 0.00 0.09 0.00 42 1005.8